Flag for Faroe Islands Weather past 2 weeks in Tórshavn, Faroe Islands, Faroe Islands

Now
48 °F

Passing clouds.


Feels Like: 41 °F
Forecast: 49 / 51 °F
Wind: 20 mph from Southwest

Location: Soervaag / Vagar

Current Time: Oct 23, 2014 at 12:33:12 AM

Latest Report: Oct 22, 2014 at 11:50 PM


Visibility: 5 mi

Pressure: 29.24 "Hg

Humidity: 94%

Dew point: 46 °F

Location of TórshavnLocation

Historic Weather in Tórshavn — Graph

°F

Tórshavn temperature yesterday

Maximum temperature yesterday: 50 °F (at 1:50 PM)
Minimum temperature yesterday: 37 °F (at 3:50 AM)
Average temperature yesterday: 45 °F

Past Weeks' High & Low Weather Summary

 TemperatureHumidityPressure
High54 °F (Oct 9, 2:20 PM)100% (Oct 18, 1:20 AM)30.07 "Hg (Oct 18, 1:20 AM)
Low36 °F (Oct 13, 4:50 AM)53% (Oct 22, 1:20 AM)28.97 "Hg (Oct 19, 9:50 AM)
Average46 °F83%29.60 "Hg
* Reported Oct 7 11:20 PM — Oct 22 11:20 PM, Tórshavn, Weather by CustomWeather, © 2014

Note: Actual official high and low records may vary slightly from our data, if they occured in-between our weather recording intervals... More about our weather records

Advertising

Tórshavn weather history for previous 24 hours

 ConditionsComfort  
Time TempWeatherWind HumidityBarometerVisibility
11:20 PM
Oct 22
48 °FPassing clouds.17 mph94%29.27 "HgN/A
10:50 PM48 °FPassing clouds.20 mph94%29.27 "HgN/A
10:20 PM48 °FSprinkles. Passing clouds.18 mph94%29.27 "HgN/A
9:50 PM48 °FPassing clouds.18 mph94%29.27 "HgN/A
9:20 PM48 °FPassing clouds.16 mph94%29.30 "HgN/A
8:50 PM48 °FPassing clouds.21 mph87%29.30 "HgN/A
8:20 PM50 °FPassing clouds.12 mph88%29.30 "HgN/A
7:50 PM48 °FPartly sunny.12 mph87%29.30 "HgN/A
7:20 PM48 °FPartly sunny.18 mph87%29.30 "HgN/A
6:50 PM50 °FPartly sunny.17 mph82%29.30 "HgN/A
6:20 PM50 °FPartly sunny.13 mph82%29.30 "HgN/A
5:50 PM50 °FPartly sunny.13 mph82%29.33 "HgN/A
5:20 PM50 °FPartly sunny.13 mph88%29.33 "HgN/A
4:50 PM50 °FSprinkles. Mostly cloudy.15 mph82%29.33 "HgN/A
4:20 PM50 °FLow clouds.12 mph94%29.33 "HgN/A
3:50 PM50 °FLow clouds.15 mph100%29.33 "HgN/A
3:20 PM50 °FFog.10 mph100%29.33 "Hg2 mi
2:50 PM50 °FFog.15 mph100%29.36 "Hg1 mi
2:20 PM50 °FLight rain. Fog.17 mph100%29.36 "Hg1 mi
1:50 PM50 °FLight rain. Fog.16 mph100%29.39 "Hg2 mi
1:20 PM48 °FLight rain. Low clouds.21 mph100%29.39 "Hg2 mi
12:50 PM48 °FRain. Low clouds.17 mph94%29.42 "Hg2 mi
12:20 PM46 °FRain. Cloudy.22 mph93%29.45 "Hg2 mi
11:50 AM46 °FRain. Partly sunny.20 mph93%29.47 "Hg2 mi
11:20 AM46 °FRain. Partly sunny.20 mph93%29.50 "Hg3 mi
11:08 AM45 °FRain. Partly sunny.22 mph93%29.53 "Hg3 mi
10:50 AM45 °FRain. Partly sunny.23 mph93%29.53 "HgN/A
10:20 AM45 °FRain. Passing clouds.20 mph93%29.56 "HgN/A
9:51 AM45 °FRain. Passing clouds.21 mph93%29.59 "HgN/A
9:23 AM45 °FRain. Passing clouds.18 mph93%29.62 "HgN/A
8:51 AM45 °FPassing clouds.17 mph81%29.62 "HgN/A
8:21 AM45 °FPassing clouds.14 mph76%29.65 "HgN/A
7:50 AM43 °FOvercast.13 mph76%29.65 "HgN/A
7:20 AM43 °FPassing clouds.10 mph71%29.68 "HgN/A
6:50 AM43 °FPassing clouds.9 mph71%29.68 "HgN/A
6:20 AM43 °FPassing clouds.9 mph66%29.68 "HgN/A
5:50 AM41 °FPartly cloudy.2 mph66%29.68 "HgN/A
5:20 AM41 °FPartly cloudy.5 mph66%29.71 "HgN/A
4:50 AM37 °FPassing clouds.3 mph70%29.71 "HgN/A
4:20 AM39 °FPassing clouds.1 mph65%29.71 "HgN/A
3:50 AM37 °FPartly cloudy.6 mph65%29.71 "HgN/A
3:20 AM39 °FPassing clouds.9 mph61%29.71 "HgN/A
2:50 AM39 °FPassing clouds.10 mph61%29.71 "HgN/A
2:20 AM39 °FPassing clouds.13 mph61%29.71 "HgN/A
1:50 AM39 °FPassing clouds.10 mph61%29.71 "HgN/A
1:20 AM41 °FPassing clouds.15 mph53%29.71 "HgN/A
12:50 AM39 °FPassing clouds.15 mph56%29.68 "HgN/A
12:20 AM39 °FPassing clouds.14 mph56%29.68 "HgN/A
Weather by CustomWeather, © 2014

See weather overviewHow to use our weather pages